Temp
13 12 12 12 12 12 12 12 11 11 11 11 12 11 12 12 12 12 12 12 12 13 13 13 14 13 14 19 22 16 17 17 18 19 21 23 23 23 24 24 24 24 24 23 23 23 24
11 11 11 10 10 11 11 11 11 11 10 10 10 10 11 12 12 12 11 11 12 12 11 11 10 11 15 19 16 15 16 17 18 20 21 22 22 23 23 23 23 22 22 23 24 24 24
10 10 10 10 10 10 10 10 10 9 9 9 9 9 9 10 10 10 11 11 11 11 10 9 9 10 14 19 16 15 16 17 17 18 21 20 20 22 22 22 21 22 22 24 24 24 24
9 9 10 9 9 9 9 9 9 9 9 9 9 9 9 9 10 10 10 10 11 11 10 9 9 11 17 15 15 15 16 17 16 17 18 18 19 21 21 21 21 22 22 24 23 23 22
9 9 9 9 9 9 9 9 9 8 8 8 8 8 9 9 10 9 10 10 10 10 9 9 10 12 18 16 17 16 16 18 17 16 18 18 20 21 21 22 23 22 24 23 23 23 23
9 9 9 9 9 9 8 8 8 8 8 8 8 8 8 8 9 9 9 10 9 9 9 9 10 12 17 19 17 17 16 17 19 18 19 19 21 21 21 22 24 24 22 22 22 24 22
9 9 9 8 8 8 8 8 8 8 8 8 8 8 8 8 9 8 9 11 13 14 10 17 17 16 18 16 15 18 17 18 20 20 21 19 20 21 24 22 21 21 21 21 23 22 20
9 9 9 9 8 8 8 8 8 8 8 8 8 8 8 8 8 8 8 13 12 10 15 16 14 15 14 14 17 18 17 19 19 21 20 19 20 22 21 19 19 20 20 21 22 21 20
9 9 8 9 8 8 8 8 8 8 8 7 7 7 8 8 7 8 8 10 8 9 14 16 14 14 15 14 17 19 18 19 19 20 20 20 22 20 19 19 19 20 20 21 20 21 21
9 9 8 8 8 8 8 8 8 8 7 7 7 7 8 7 7 8 10 8 8 8 15 18 15 15 14 15 16 16 16 19 19 19 20 19 21 19 19 19 20 19 21 19 19 19 20
8 8 8 8 8 8 8 8 7 7 7 7 7 7 7 7 8 9 8 7 8 10 17 17 15 14 15 15 17 16 16 17 18 18 18 20 18 18 18 19 19 19 19 18 18 19 19
8 8 8 8 8 8 8 8 7 7 7 7 7 7 7 7 7 8 7 7 9 14 16 17 16 15 16 16 17 17 17 17 18 18 18 19 18 19 20 19 19 19 18 19 19 19 18
8 8 8 8 8 8 8 8 8 7 7 7 7 7 7 7 9 7 8 10 12 15 17 17 17 16 17 17 17 18 17 17 18 17 18 18 19 19 19 18 18 18 18 18 19 19 19
7 7 7 8 8 8 8 8 8 7 7 7 7 6 6 6 7 7 9 11 11 17 17 17 17 17 18 18 18 18 18 18 18 18 19 19 19 19 19 19 20 18 19 18 17 19 20
7 7 7 7 7 7 7 7 7 7 7 7 6 5 6 6 7 7 10 10 15 17 16 16 17 17 18 18 18 18 18 19 19 19 18 18 18 19 18 19 19 18 17 20 18 18 17
6 7 7 7 7 7 7 7 7 7 7 6 6 6 7 7 7 7 9 11 14 14 15 16 16 17 17 18 17 18 19 19 17 18 18 18 17 20 19 18 18 18 19 17 17 15 17
6 7 6 6 6 7 7 7 7 7 6 6 6 7 6 6 6 8 9 12 13 13 14 15 16 16 16 16 17 17 18 17 18 16 18 17 17 18 17 18 19 18 17 17 17 17 16
4 5 6 5 5 6 6 6 7 7 6 6 4 5 4 6 7 8 9 11 11 12 13 13 13 14 15 15 15 16 16 16 16 15 15 16 16 16 18 19 18 17 17 18 15 16 14
3 3 5 5 5 5 6 6 6 6 5 5 4 4 3 5 7 7 10 11 11 11 12 13 13 13 15 14 13 15 15 16 15 15 15 16 15 15 16 18 17 15 16 16 13 11 13
2 4 4 4 5 5 5 5 5 6 5 5 3 5 4 4 9 10 10 10 10 10 11 11 12 12 13 13 14 13 14 14 14 14 12 13 14 14 15 17 17 15 16 16 15 13 15
2 4 4 4 5 5 5 5 5 5 5 4 4 6 7 5 5 9 10 10 10 10 11 12 11 12 12 12 13 13 14 14 14 14 14 13 13 14 15 16 15 15 15 16 16 16 14
3 3 3 4 4 4 5 4 4 4 4 4 3 5 6 10 8 7 9 9 10 11 11 10 11 12 12 12 12 13 13 13 13 14 13 13 12 13 13 15 15 15 15 16 16 16 16
2 2 3 3 3 3 4 4 4 4 4 0 2 6 9 9 8 6 8 9 10 11 11 11 11 11 10 12 12 12 12 13 13 12 12 12 12 11 11 14 13 12 15 16 17 17 16
2 2 2 2 3 3 3 3 4 4 4 2 2 7 8 7 7 8 9 9 9 10 10 10 11 10 11 12 12 12 12 12 12 12 13 12 12 11 11 12 10 16 15 14 15 16 16
2 2 2 2 2 2 3 3 3 4 4 3 3 5 7 7 9 9 9 9 9 9 9 9 10 11 11 10 9 8 10 11 12 13 12 13 12 10 10 12 14 15 14 11 11 15 16
1 1 2 2 2 2 2 2 3 3 3 2 2 4 7 7 9 10 9 9 8 8 8 8 9 9 9 8 8 7 9 11 12 12 13 13 12 10 11 10 11 14 12 12 12 12 15
1 1 2 2 2 2 3 2 2 3 3 1 0 1 4 5 8 9 9 8 9 8 8 8 8 8 9 7 7 8 10 12 11 11 12 10 8 9 10 10 13 16 11 11 11 13 10
1 1 2 2 2 2 2 3 3 3 2 1 1 1 4 4 6 8 9 8 8 8 8 8 8 8 6 6 7 9 10 12 12 12 12 12 11 11 10 10 11 11 9 11 10 8 9
2 2 2 1 1 2 2 3 3 3 2 0 0 1 1 3 5 6 7 7 8 8 8 7 8 6 7 6 8 9 8 10 11 10 12 10 12 12 11 13 9 10 8 8 8 8 8
Height
811 813 815 817 821 823 826 826 828 828 831 832 832 832 834 833 832 831 832 831 831 828 827 826 823 821 818 812 804 803 802 802 804 803 800 799 799 798 796 796 796 797 796 799 798 796 793
808 810 813 815 818 820 823 824 827 826 830 831 831 831 830 831 829 828 830 829 828 827 826 825 824 821 819 811 802 803 802 802 803 802 800 799 799 798 799 799 798 799 800 797 795 791 788
808 811 811 815 817 820 821 823 826 824 829 830 831 829 831 831 828 826 827 826 826 827 826 825 823 822 819 805 803 804 802 801 803 803 800 801 803 800 799 800 800 799 802 789 786 790 790
807 810 810 817 816 818 820 821 823 826 827 829 829 829 829 831 827 825 825 826 824 823 825 825 824 821 812 802 802 800 800 798 801 802 805 803 803 800 798 800 800 799 800 792 790 790 795
805 808 809 815 815 817 816 820 822 824 825 829 827 828 829 826 825 826 824 823 824 822 822 822 824 822 805 804 802 798 798 797 799 803 805 805 803 799 799 796 794 796 788 796 791 789 790
803 805 809 811 814 814 815 816 821 825 824 827 827 827 828 826 823 823 825 821 822 820 824 823 823 824 802 799 802 799 798 798 797 802 804 802 800 798 794 791 784 781 793 793 796 785 789
797 801 805 808 811 814 812 814 817 821 823 825 827 827 827 826 819 821 824 822 822 819 822 809 806 800 800 802 802 800 798 798 796 795 794 800 799 795 780 784 788 795 797 795 788 786 797
794 797 799 805 807 811 812 813 816 817 820 823 826 826 825 823 821 821 822 819 821 824 812 803 805 805 801 806 802 796 799 797 796 791 793 802 795 784 791 796 797 795 796 792 784 790 796
790 793 796 800 803 807 809 811 815 816 819 819 823 823 825 822 822 821 822 823 823 822 815 795 798 802 799 805 798 793 796 791 793 791 791 790 786 791 797 796 797 792 796 790 793 789 787
784 787 792 796 798 802 807 808 811 815 817 819 820 821 822 823 826 825 822 822 820 822 806 784 794 795 798 799 797 799 796 790 791 792 789 791 786 794 794 795 791 795 787 793 795 796 787
782 781 786 790 795 797 804 806 809 810 816 818 820 821 819 822 822 823 823 822 819 822 801 788 792 796 794 794 792 793 796 796 789 789 794 786 793 794 795 792 792 794 794 795 794 792 787
777 777 780 785 790 794 798 801 805 808 810 815 816 819 820 823 820 822 820 824 821 813 795 783 788 790 789 787 788 789 792 795 789 790 791 785 789 789 784 789 792 793 795 790 789 787 786
770 771 775 779 783 788 794 797 799 805 808 811 814 817 821 823 820 820 820 822 816 796 777 781 780 783 779 779 783 782 787 788 786 795 790 786 786 784 786 790 791 794 796 790 784 781 774
762 765 769 773 777 782 787 793 795 800 805 808 812 815 818 820 820 820 820 819 809 775 775 779 777 778 775 775 776 779 783 781 784 784 783 781 785 785 782 781 780 787 787 789 793 775 765
756 759 763 766 770 776 782 786 792 796 799 805 811 813 817 816 819 820 818 812 781 773 777 778 780 776 774 776 774 775 777 776 773 778 786 785 785 780 781 779 778 786 793 777 784 775 780
751 753 756 760 764 769 774 780 786 790 797 801 808 812 812 814 818 820 815 797 783 785 784 781 780 777 774 770 776 775 771 774 784 782 780 783 786 771 773 781 779 780 774 788 786 791 776
740 745 750 754 758 762 768 775 781 787 792 799 804 806 808 813 818 817 808 791 786 788 787 785 780 780 779 778 775 775 773 780 781 788 783 784 783 777 781 778 772 777 781 783 778 777 779
736 740 743 748 752 756 761 768 775 782 787 795 799 803 806 809 813 807 799 791 792 788 788 787 789 785 783 781 783 782 783 782 787 791 792 787 787 782 773 766 773 774 772 771 784 775 781
735 737 740 743 748 752 756 763 768 774 778 785 792 800 804 805 800 801 790 790 792 792 788 788 787 788 784 786 791 785 785 786 789 788 787 787 784 785 773 768 774 776 770 774 789 799 783
732 734 736 739 743 747 750 757 762 765 772 778 788 791 801 801 788 784 786 786 790 793 791 794 791 791 788 789 788 788 789 790 793 793 796 795 786 784 775 763 765 774 770 767 776 779 763
729 730 732 735 738 742 747 752 757 760 765 774 778 773 774 785 791 786 781 780 783 787 791 790 789 788 785 787 786 786 786 787 789 790 791 792 788 781 774 771 772 769 765 762 761 756 764
723 726 729 732 735 738 742 747 749 755 759 765 771 770 774 762 777 788 780 776 778 779 786 788 789 783 787 788 786 783 786 786 787 787 788 790 787 782 775 770 768 765 757 752 750 747 745
720 722 726 729 732 734 735 738 745 751 752 756 762 763 759 762 772 786 774 773 775 779 783 783 782 785 788 786 787 789 790 789 787 786 786 785 787 788 778 768 771 768 744 741 735 731 735
717 718 721 724 726 729 733 737 742 746 747 754 755 756 758 760 765 762 766 774 775 778 780 782 785 788 790 791 792 791 788 785 782 780 782 783 782 785 775 768 772 732 736 741 735 728 727
710 713 715 717 720 723 727 730 734 738 742 743 752 754 753 754 754 758 763 769 773 777 783 785 786 790 793 795 797 795 781 777 769 766 768 770 773 780 779 757 742 730 734 750 749 725 723
706 708 710 713 716 719 722 725 728 732 737 735 745 750 751 751 746 751 762 766 771 777 780 783 787 789 792 794 793 790 776 760 756 751 754 755 761 773 764 762 752 723 735 741 742 732 721
699 701 704 707 711 714 717 721 725 730 735 736 742 749 751 754 751 750 755 761 767 771 776 778 783 784 785 788 786 775 764 755 755 750 749 760 771 767 755 756 729 717 737 742 741 726 736
693 696 699 703 707 710 714 716 721 727 732 733 738 743 748 750 752 752 756 762 766 766 768 773 780 779 785 784 775 759 755 745 743 743 742 738 749 745 749 748 734 732 744 736 735 743 744
686 690 694 699 703 706 709 712 718 722 727 731 738 743 747 751 753 757 759 761 762 765 767 772 769 776 776 775 765 757 757 747 740 740 735 748 735 732 734 718 737 737 740 741 740 742 747
Wind_Speed
23 20 19 17 15 13 12 10 9 9 10 11 10 10 10 10 10 10 11 12 13 15 16 17 18 14 8 6 7 2 3 3 4 3 4 5 4 3 5 2 4 7 3 4 5 8 8
9 11 10 10 10 9 9 7 8 7 7 7 7 7 8 8 8 8 10 11 12 13 14 14 15 10 4 11 0 1 2 1 1 1 3 2 1 1 2 4 6 2 5 9 7 11 9
7 8 7 7 6 7 6 6 6 5 6 6 5 3 4 5 6 6 8 10 10 11 12 10 9 8 6 12 2 4 5 3 2 2 3 4 1 6 1 3 1 4 9 8 5 2 4
9 11 10 10 9 9 8 7 5 6 6 5 4 3 3 6 6 7 8 7 7 7 9 9 8 5 8 5 6 7 6 7 8 7 3 4 1 2 4 1 4 6 5 7 7 3 1
11 12 12 13 11 12 10 7 6 7 6 6 4 4 5 4 6 8 7 5 6 7 7 7 5 3 7 5 4 1 3 3 7 5 8 4 4 3 5 7 6 6 8 5 4 2 2
15 16 17 15 15 15 12 9 8 7 7 9 6 6 6 5 5 6 7 5 8 5 6 5 4 5 6 1 2 2 3 6 4 11 9 6 5 8 6 8 7 5 7 7 7 2 9
17 18 20 18 17 15 13 10 11 9 8 8 8 6 5 5 3 5 5 2 4 4 5 8 3 5 5 9 6 3 4 6 8 7 7 9 8 10 8 8 4 5 9 13 11 9 11
20 21 20 19 19 16 14 12 12 13 11 10 8 5 4 4 3 4 3 1 2 3 9 13 16 14 10 5 5 7 4 8 9 10 6 6 12 9 4 4 7 10 12 14 11 5 8
20 19 20 21 20 18 16 14 13 13 14 14 9 4 4 4 4 2 1 2 3 3 6 5 3 5 2 8 7 12 9 6 10 11 11 13 3 1 8 8 11 12 12 13 11 11 15
24 22 22 21 20 18 18 18 17 15 14 12 9 5 3 2 1 3 3 3 5 5 4 5 4 3 5 3 5 4 8 9 8 11 9 10 12 8 8 11 10 12 7 11 11 8 7
23 22 24 24 23 20 21 20 19 18 18 14 11 8 5 5 2 3 1 2 7 4 5 5 6 6 4 4 0 3 2 6 11 8 6 1 5 7 12 12 4 7 2 5 8 11 13
25 24 25 26 25 23 22 22 22 20 19 17 13 9 6 4 4 3 1 2 2 3 8 4 5 5 6 6 4 6 5 4 1 5 7 9 1 5 6 4 8 1 7 9 9 9 10
29 29 27 28 27 27 25 22 19 22 21 17 15 12 10 5 2 4 6 3 3 7 3 6 4 5 3 6 7 6 9 7 3 5 7 6 13 8 8 9 6 11 6 5 6 6 8
26 29 31 28 28 30 27 25 23 24 24 17 17 14 11 8 6 2 6 3 8 3 6 1 3 6 4 7 5 7 6 6 7 5 2 5 6 10 9 12 4 12 11 6 7 7 9
26 27 26 27 28 30 29 27 25 26 26 19 17 12 5 10 8 2 5 6 10 9 3 4 4 5 5 5 2 6 7 7 3 10 6 4 7 4 7 3 9 7 8 9 15 16 12
32 27 26 26 27 27 30 28 26 26 26 25 19 11 6 12 9 3 5 8 8 1 1 3 9 3 11 7 7 6 9 4 4 1 4 1 9 8 3 5 6 9 3 7 7 9 17
33 32 23 23 29 29 31 29 27 28 29 29 15 5 7 14 10 4 7 9 7 3 1 4 5 5 3 5 4 7 3 6 3 5 3 1 4 5 4 9 16 7 11 9 11 11 13
19 22 30 28 21 24 25 27 31 32 33 31 9 4 10 19 7 5 12 7 2 5 7 4 3 5 9 5 5 6 7 2 4 3 6 4 5 11 15 8 5 9 15 16 12 13 7
21 20 23 27 24 25 24 25 31 36 38 19 6 3 7 12 9 11 11 14 7 5 9 4 7 8 6 11 5 8 8 5 6 3 4 1 7 12 18 12 13 10 13 12 6 3 13
15 18 19 22 25 23 25 26 32 38 37 18 4 5 3 4 9 17 15 16 17 7 12 4 2 4 8 9 11 7 8 4 3 4 2 2 10 13 14 14 12 11 12 14 17 11 17
17 17 17 19 22 23 26 30 30 36 42 23 4 4 8 7 11 13 17 9 19 13 9 11 12 12 10 11 12 14 13 12 11 6 7 5 13 15 18 19 18 20 21 21 22 22 20
16 16 18 20 22 23 25 22 25 25 41 17 4 4 4 8 16 17 16 20 17 13 16 11 13 7 13 18 16 11 8 9 11 9 10 4 11 10 18 16 18 21 24 25 24 26 26
17 18 20 21 22 22 24 26 30 30 30 5 7 7 5 9 16 13 18 19 14 14 14 13 13 11 11 12 8 10 11 13 15 14 12 13 10 9 19 14 10 13 26 25 23 24 22
19 20 20 21 22 23 24 28 35 34 38 12 11 9 7 8 13 19 16 19 19 14 15 8 10 13 8 9 10 13 15 17 19 19 17 19 17 11 15 15 14 16 5 9 13 18 19
19 20 20 20 21 22 24 25 28 32 31 29 14 9 6 9 15 17 17 14 13 13 14 13 12 11 8 9 9 10 11 15 20 24 23 21 18 11 12 15 19 28 11 5 7 20 11
20 20 21 21 21 23 24 24 25 28 24 23 17 16 6 8 14 18 15 15 10 10 10 10 9 9 7 5 6 10 9 11 7 4 5 17 20 14 15 17 20 18 3 5 4 14 9
21 20 20 20 21 22 24 24 24 26 23 29 11 17 5 6 4 15 15 13 11 9 5 3 5 7 10 5 9 12 16 15 18 19 11 5 6 14 16 17 16 11 10 9 8 4 4
22 21 20 21 21 24 24 23 25 28 24 26 18 16 8 4 9 9 11 10 9 11 8 5 5 6 5 6 6 10 10 12 16 20 16 16 10 10 10 12 18 11 10 8 1 4 4
23 22 21 21 21 21 21 21 26 27 22 22 7 21 10 2 3 5 10 9 9 8 7 5 3 3 4 4 6 5 6 4 14 15 13 11 13 10 9 6 2 14 3 2 4 6 6
Wind_Direction
206 204 202 199 207 213 221 226 237 242 251 258 259 261 270 275 284 296 300 306 306 315 314 314 317 325 348 281 275 253 239 277 294 295 298 288 252 247 256 258 252 244 252 253 256 273 267
190 190 197 196 196 205 215 227 236 235 245 246 247 249 260 274 286 292 299 305 308 309 311 316 323 339 311 278 198 281 255 274 64 193 129 188 227 256 267 264 258 79 275 278 277 272 278
205 204 187 193 196 211 210 216 221 215 226 229 237 243 288 290 296 302 300 304 304 305 310 316 331 346 279 267 244 282 273 228 175 90 160 116 120 237 166 228 328 291 280 265 271 261 158
206 214 204 221 209 215 207 210 209 217 206 214 230 247 277 300 320 320 317 316 308 302 298 310 329 335 268 263 279 276 251 241 240 233 209 158 154 227 242 93 227 259 262 263 127 238 104
226 219 212 222 212 207 198 207 213 210 205 225 218 267 288 304 320 319 321 317 309 302 272 289 315 327 268 289 263 61 159 129 128 152 168 130 207 247 191 227 241 186 274 248 206 198 262
229 228 231 223 220 207 204 206 221 228 209 213 226 265 291 302 314 317 314 311 297 300 300 285 265 255 243 329 305 309 155 157 122 142 154 188 206 239 222 222 270 312 246 216 253 155 290
222 226 229 225 221 221 214 214 221 217 195 207 224 253 278 302 328 328 336 324 232 187 223 257 303 285 276 323 280 228 177 169 148 200 222 200 222 231 251 237 298 263 264 275 276 269 292
228 226 218 222 215 216 214 216 212 190 196 215 223 257 276 303 315 345 343 270 39 1 287 239 256 264 261 299 286 201 184 209 214 240 165 200 241 260 280 236 235 247 263 269 280 275 267
225 223 224 223 219 217 216 211 209 201 206 202 211 240 281 303 307 331 189 152 194 19 263 271 226 255 248 199 242 233 203 220 233 242 223 255 3 20 202 221 239 244 266 274 278 295 277
227 225 223 224 221 216 215 210 200 201 203 203 206 219 232 290 311 235 189 248 238 210 272 166 187 163 157 195 226 246 241 231 208 248 236 260 266 230 223 246 255 270 269 264 269 273 276
233 227 226 221 224 222 221 221 209 197 201 201 202 202 204 201 176 223 82 62 142 209 278 122 130 134 150 222 72 108 166 198 232 198 195 166 196 211 229 248 239 277 267 254 268 269 281
236 230 227 224 224 222 217 217 213 203 197 196 193 199 211 218 211 193 189 188 186 214 237 140 131 180 186 180 154 130 159 216 90 197 230 265 300 234 239 222 230 195 233 239 256 263 259
242 237 231 223 222 219 219 211 209 204 194 194 195 196 201 207 213 193 160 179 203 225 112 155 156 185 203 162 160 175 169 166 175 187 207 214 233 220 216 222 202 219 250 269 246 207 257
241 235 230 223 220 220 217 216 208 202 196 193 194 188 204 204 211 318 181 182 216 268 204 99 151 165 194 164 173 170 169 196 206 223 248 256 205 196 174 219 268 212 231 253 265 263 276
242 232 228 223 223 222 219 213 210 204 193 187 181 178 189 212 214 259 216 210 223 229 150 175 192 250 193 176 240 187 218 243 225 207 241 224 225 156 203 190 210 149 222 269 275 271 267
230 223 225 219 223 220 214 217 210 198 192 182 172 167 200 198 192 183 206 237 247 227 274 213 244 254 251 222 215 221 205 132 118 75 230 261 269 255 203 205 210 251 359 239 228 265 257
218 223 217 218 223 213 213 215 208 199 188 177 162 166 176 171 157 202 212 220 237 219 241 251 238 235 247 217 245 220 237 110 118 90 15 298 258 221 206 220 250 200 232 241 276 256 266
261 217 219 229 219 214 207 213 210 198 188 172 143 177 169 159 173 204 225 212 235 190 221 237 278 245 245 232 244 244 252 358 94 352 305 312 285 269 257 271 252 258 266 277 252 252 256
226 233 218 216 218 226 209 215 210 195 186 163 148 114 174 192 197 211 218 221 230 199 215 195 218 235 241 245 257 239 249 314 353 338 328 348 244 271 263 221 228 243 245 242 231 288 260
238 236 229 218 216 222 216 223 215 195 187 162 146 154 162 201 229 221 213 221 222 207 229 183 232 238 227 236 238 250 229 172 1 327 350 251 253 250 266 284 322 270 264 254 240 251 261
241 236 237 226 213 213 215 217 215 204 188 169 186 190 171 182 206 218 219 225 221 220 220 214 228 231 224 236 230 238 244 260 269 258 279 254 265 269 270 271 275 274 276 271 265 254 253
241 241 238 226 217 219 221 215 215 206 187 181 167 156 179 185 189 209 210 225 229 218 227 214 234 202 231 243 254 264 262 257 271 259 259 230 268 278 271 268 265 268 267 263 259 260 264
242 236 236 228 224 225 223 226 223 216 218 119 189 173 171 191 188 188 217 220 221 221 222 230 247 242 243 253 281 281 283 276 268 268 260 267 269 272 272 285 291 272 256 261 261 257 251
239 235 232 230 227 224 222 220 222 214 206 177 195 160 187 199 191 204 201 216 224 208 225 208 227 244 269 319 289 276 263 260 259 256 250 253 251 260 265 272 250 265 305 289 278 265 255
241 236 232 231 228 225 225 223 225 219 219 188 184 193 189 203 205 207 206 207 211 216 230 243 250 261 266 282 276 275 260 253 250 248 239 232 238 245 250 258 267 277 255 206 215 267 254
238 235 231 228 222 224 223 221 222 222 217 188 189 192 181 198 211 205 196 192 185 196 215 233 232 232 240 230 226 239 239 251 258 242 229 232 227 231 239 246 260 271 141 184 187 267 213
235 234 230 226 226 226 225 222 224 224 222 187 177 192 159 173 171 190 197 203 201 189 215 179 183 199 197 220 223 235 243 241 247 250 229 194 207 230 233 242 257 239 152 158 205 296 146
227 225 223 222 223 222 222 219 217 218 203 178 174 167 181 157 168 184 184 177 180 201 207 150 189 205 191 225 239 224 242 237 240 249 253 246 228 229 235 240 247 135 142 218 126 122 170
227 223 216 212 220 221 219 216 214 207 195 162 147 185 135 110 126 172 193 201 212 183 211 197 208 162 218 249 230 226 235 241 238 248 224 242 233 244 225 259 112 186 28 166 131 166 172